Hourly Data Report for November 13, 2005

TORONTO CITY
ONTARIO

43°40'00.000" N
79°24'00.000" W
112.50 m
6158355
71508
XTO

Download Data

Hourly Data (November 2005)
Hourly Data Report for November 13, 2005
TIME
LST
Temp Definition
°C
Dew Point Definition
°C
Rel Hum Definition
%
Precip. Amount Definition
mm

Wind Dir Definition
10's deg

Wind Spd Definition
km/h
Visibility Definition
km
Stn Press Definition
kPa
Hmdx Definition


Wind Chill Definition


Weather Definition


00:00 11.7 3.9 59   LegendMM LegendMM   100.18     LegendNANA
01:00 10.9 4.2 63   LegendMM LegendMM   100.15     LegendNANA
02:00 11.8 3.9 58   LegendMM LegendMM   100.12     LegendNANA
03:00 9.8 4.5 70   LegendMM LegendMM   100.07     LegendNANA
04:00 11.9 3.9 58   LegendMM LegendMM   99.99     LegendNANA
05:00 11.5 3.7 59   LegendMM LegendMM   99.91     LegendNANA
06:00 11.0 4.5 64   LegendMM LegendMM   99.85     LegendNANA
07:00 11.6 5.0 64   LegendMM LegendMM   99.83     LegendNANA
08:00 10.3 7.7 84   LegendMM LegendMM   99.82     LegendNANA
09:00 10.5 8.3 86   LegendMM LegendMM   99.79     LegendNANA
10:00 11.9 8.2 78   LegendMM LegendMM   99.76     LegendNANA
11:00 12.2 8.1 76   LegendMM LegendMM   99.73     LegendNANA
12:00 13.4 9.2 76   LegendMM LegendMM   99.62     LegendNANA
13:00 13.9 9.8 76   LegendMM LegendMM   99.58     LegendNANA
14:00 14.3 10.4 77   LegendMM LegendMM   99.56     LegendNANA
15:00 14.5 10.6 77   LegendMM LegendMM   99.56     LegendNANA
16:00 14.5 10.6 77   LegendMM LegendMM   99.56     LegendNANA
17:00 14.0 10.1 77   LegendMM LegendMM   99.56     LegendNANA
18:00 13.6 10.5 82   LegendMM LegendMM   99.56     LegendNANA
19:00 13.1 10.4 84   LegendMM LegendMM   99.56     LegendNANA
20:00 12.9 10.2 84   LegendMM LegendMM   99.59     LegendNANA
21:00 15.2 3.9 47   LegendMM LegendMM   99.68     LegendNANA
22:00 11.1 2.1 54   LegendMM LegendMM   99.91     LegendNANA
23:00 10.3 2.5 58   LegendMM LegendMM   100.04     LegendNANA

Notes on Data Quality.

Legend

  • E = Estimated
  • M = Missing
  • NA = Not Available*
  • [empty] = Indicates an unobserved value
Date modified: